Stations météo

réclame
Mon MeteoGroup
Mont-De-Marsan, France (7607): Température de l'air & dewpoint: 15.06.2018 01:00:00 - 21.06.2018 01:00:00 (CEST)Mont-De-Marsan, France (7607): Température de l'air 5cm: 15.06.2018 01:00:00 - 21.06.2018 01:00:00 (CEST)Mont-De-Marsan, France (7607): Température de l'air -20cm & Température de l'air -100cm: 15.06.2018 01:00:00 - 21.06.2018 01:00:00 (CEST)Mont-De-Marsan, France (7607): Vitesse du vent & gusts: 15.06.2018 01:00:00 - 21.06.2018 01:00:00 (CEST)Mont-De-Marsan, France (7607): Direction du vent: 15.06.2018 01:00:00 - 21.06.2018 01:00:00 (CEST)Mont-De-Marsan, France (7607): reduced air pressure: 15.06.2018 01:00:00 - 21.06.2018 01:00:00 (CEST)Mont-De-Marsan, France (7607): visibility: 15.06.2018 01:00:00 - 21.06.2018 01:00:00 (CEST)Mont-De-Marsan, France (7607): Ensoleillement: 15.06.2018 01:00:00 - 21.06.2018 01:00:00 (CEST)Mont-De-Marsan, France (7607): Quantités de précipitations: 15.06.2018 01:00:00 - 21.06.2018 01:00:00 (CEST)
Date & Time tt [°C] td [°C] tt 5cm [°C] tt -20cm [°C] tt -100cm [°C] ff [km/h] ff [knt] fx [km/h] fx [knt] dd ppp [hPa] vv [km] sd [min] rr [mm]
21.06.2018 01:00:00 - - - - - - - - - - - - - -
21.06.2018 00:00:00 21,7 19,6 20,8 23,7 18,6 13 7 23 12 W 1018,8 13 0 0,0
20.06.2018 23:00:00 24,0 20,3 22,6 23,7 18,6 11 6 26 14 WSW 1018,2 19 0 0,0
20.06.2018 22:00:00 26,9 19,5 22,2 23,6 18,6 6 3 11 6 E 1016,9 53 18 0,0
20.06.2018 21:00:00 31,6 18,9 30,2 23,5 18,6 4 2 6 4 NNW 1016,2 57 60 0,0
20.06.2018 20:00:00 32,4 17,5 38,0 23,2 18,6 6 3 11 6 NNW 1016,2 60 60 0,0
20.06.2018 19:00:00 32,5 17,9 43,2 22,9 18,6 5 3 16 9 N 1016,3 60 58 0,0
20.06.2018 18:00:00 33,4 17,6 42,6 22,5 18,6 5 3 16 8 WNW 1016,5 60 60 0,0
20.06.2018 17:00:00 32,5 17,9 45,3 22,1 18,6 5 3 14 7 NNE 1016,6 19 60 0,0
20.06.2018 16:00:00 32,3 17,8 47,4 21,6 18,6 5 3 19 11 E 1017,0 56 60 0,0
20.06.2018 15:00:00 31,4 18,0 46,3 21,2 18,6 3 2 18 10 SE 1017,4 55 60 0,0
20.06.2018 14:00:00 30,6 19,0 42,4 20,9 18,6 6 3 16 9 ESE 1017,9 20 60 0,0
20.06.2018 13:00:00 29,2 18,3 41,3 20,7 18,6 9 5 19 10 E 1018,3 43 60 0,0
20.06.2018 12:00:00 28,4 18,8 38,0 20,6 18,6 9 5 20 11 E 1018,4 39 60 0,0
20.06.2018 11:00:00 26,8 18,1 32,4 20,6 18,6 9 5 15 8 ESE 1018,6 36 60 0,0
20.06.2018 10:00:00 24,0 18,0 25,9 20,7 18,6 7 4 11 6 ESE 1018,9 16 60 0,0
20.06.2018 09:00:00 20,8 17,8 18,9 20,8 18,6 3 2 7 4 ENE 1019,0 14 60 0,0
20.06.2018 08:00:00 17,6 16,3 13,7 21,0 18,6 3 2 8 4 NE 1018,9 7 54 0,0
20.06.2018 07:00:00 14,5 14,0 11,8 21,1 18,6 4 2 7 4 ENE 1019,1 23 20 0,0
20.06.2018 06:00:00 14,4 13,9 11,3 21,3 18,6 3 1 5 3 NE 1018,8 20 0 0,0
20.06.2018 05:00:00 14,6 14,0 12,4 21,4 18,6 5 3 5 3 E 1018,8 19 0 0,0
20.06.2018 04:00:00 15,7 15,1 12,2 21,5 18,5 2 1 4 2 E 1018,9 5 0 0,0
20.06.2018 03:00:00 16,6 15,8 12,5 21,7 18,5 0 0 3 1 N 1019,3 19 0 0,0
20.06.2018 02:00:00 17,4 16,6 13,7 21,8 18,6 3 1 5 3 ESE 1019,6 12 0 0,0
20.06.2018 01:00:00 18,2 16,7 14,0 21,9 18,5 0 0 4 2 N 1020,0 32 0 0,0
20.06.2018 00:00:00 19,3 17,1 14,8 21,9 18,5 0 0 4 2 N 1020,1 32 0 0,0
19.06.2018 23:00:00 19,9 16,7 15,9 21,9 18,5 4 2 4 2 N 1020,2 47 0 0,0
19.06.2018 22:00:00 23,8 17,1 19,0 21,8 18,5 0 0 7 4 N 1019,9 50 13 0,0
19.06.2018 21:00:00 26,4 16,3 26,3 21,7 18,6 3 2 12 7 SSE 1020,0 20 45 0,0
19.06.2018 20:00:00 27,7 16,0 29,1 21,5 18,6 3 2 10 5 ENE 1020,2 47 43 0,0
19.06.2018 19:00:00 27,0 15,7 30,1 21,3 18,6 6 3 16 9 NE 1020,5 49 37 0,0
19.06.2018 18:00:00 26,8 16,4 31,5 21,0 18,5 8 5 16 9 NE 1021,0 18 36 0,0
19.06.2018 17:00:00 26,5 16,1 31,4 20,7 18,5 9 5 20 11 ENE 1021,4 60 29 0,0
19.06.2018 16:00:00 25,7 15,7 31,5 20,4 18,6 10 6 20 11 NNE 1021,9 60 24 0,0
19.06.2018 15:00:00 26,3 16,0 31,7 20,1 18,5 9 5 21 11 ENE 1022,2 17 26 0,0
19.06.2018 14:00:00 25,3 16,4 31,5 20,0 18,6 9 5 29 16 NE 1022,7 54 31 0,0
19.06.2018 13:00:00 24,4 17,4 29,3 19,8 18,6 12 6 19 11 NE 1023,4 46 14 0,0
19.06.2018 12:00:00 23,6 16,9 28,3 19,7 18,6 8 5 21 12 NE 1023,8 47 37 0,0
19.06.2018 11:00:00 21,9 16,8 26,7 19,7 18,6 4 2 8 4 E 1024,5 22 52 0,0
19.06.2018 10:00:00 19,5 15,8 19,3 19,8 18,6 2 1 6 4 ESE 1025,2 27 30 0,0
19.06.2018 09:00:00 16,8 14,6 17,2 19,9 18,6 4 2 9 5 E 1025,6 19 14 0,0
19.06.2018 08:00:00 16,5 15,0 14,1 20,0 18,5 6 3 9 5 NE 1025,7 20 44 0,0
19.06.2018 07:00:00 13,6 13,3 9,9 20,1 18,5 2 1 6 3 NW 1025,7 8 0 0,0
19.06.2018 06:00:00 13,4 12,8 10,1 20,2 18,6 2 1 3 1 N 1025,7 11 0 0,0
19.06.2018 05:00:00 14,1 13,5 12,5 20,3 18,6 3 1 7 4 WNW 1025,8 11 0 0,0
19.06.2018 04:00:00 14,9 14,3 14,6 20,4 18,5 5 3 8 4 W 1026,0 14 0 0,0
19.06.2018 03:00:00 14,7 14,2 10,9 20,5 18,6 4 2 7 4 W 1026,2 20 0 0,0
19.06.2018 02:00:00 14,4 13,6 11,5 20,6 18,5 5 3 7 4 W 1026,2 19 0 0,0
19.06.2018 01:00:00 14,9 13,9 11,6 20,7 18,6 3 2 9 5 NW 1026,3 27 0 0,0
19.06.2018 00:00:00 16,2 14,4 13,2 20,7 18,6 5 3 10 6 NNW 1026,5 26 0 0,0
18.06.2018 23:00:00 17,2 14,8 15,3 20,7 18,5 9 5 18 10 WNW 1026,4 45 0 0,0
18.06.2018 22:00:00 18,9 15,8 17,4 20,7 18,6 10 5 16 9 WNW 1026,0 53 18 0,0
18.06.2018 21:00:00 20,9 16,3 20,9 20,7 18,6 13 7 20 11 WNW 1025,5 57 23 0,0
18.06.2018 20:00:00 21,4 16,6 21,8 20,6 18,6 15 8 24 13 WNW 1025,2 56 23 0,0
18.06.2018 19:00:00 22,7 17,2 21,2 20,5 18,6 15 8 22 12 W 1025,3 60 28 0,0
18.06.2018 18:00:00 21,7 17,7 19,0 20,4 18,6 13 7 22 12 W 1025,6 36 4 0,4
18.06.2018 17:00:00 21,6 16,3 22,7 20,2 18,6 15 8 25 13 WSW 1025,8 36 1 0,0
18.06.2018 16:00:00 21,5 16,9 23,0 20,1 18,6 15 8 24 13 W 1025,9 31 0 0,0
18.06.2018 15:00:00 22,3 15,6 22,9 19,9 18,6 11 6 21 11 WSW 1025,9 52 7 0,0
18.06.2018 14:00:00 21,3 15,8 23,5 19,8 18,5 8 4 20 11 SW 1026,2 32 15 0,0
18.06.2018 13:00:00 20,5 15,9 25,0 19,7 18,6 10 5 21 11 WSW 1026,6 20 7 0,0
18.06.2018 12:00:00 19,2 15,7 22,1 19,7 18,6 8 4 23 12 WSW 1026,8 18 1 0,0
18.06.2018 11:00:00 18,6 15,5 19,2 19,7 18,6 11 6 19 10 SW 1026,9 17 18 0,0
18.06.2018 10:00:00 16,4 14,6 16,2 19,8 18,6 9 5 16 9 SSW 1027,3 18 0 0,0
18.06.2018 09:00:00 15,6 14,5 15,7 19,8 18,6 7 4 13 7 SW 1027,3 4,8 0 0,0
18.06.2018 08:00:00 15,2 13,7 14,5 19,9 18,5 5 3 9 5 SSW 1026,8 17 0 0,0
18.06.2018 07:00:00 14,7 13,6 14,0 20,0 18,6 4 2 9 5 S 1026,6 6 0 0,0
18.06.2018 06:00:00 14,8 12,7 13,7 20,1 18,6 4 2 9 5 WSW 1026,4 14 0 0,0
18.06.2018 05:00:00 14,5 12,4 12,6 20,2 18,6 3 2 8 4 SSW 1026,3 10 0 0,0
18.06.2018 04:00:00 13,9 12,1 11,6 20,4 18,5 0 0 7 4 N 1026,2 19 0 0,0
18.06.2018 03:00:00 13,0 11,9 10,0 20,5 18,5 3 2 10 5 WSW 1026,5 20 0 0,0
18.06.2018 02:00:00 12,8 11,4 9,9 20,6 18,6 6 3 9 5 W 1026,8 20 0 0,0
18.06.2018 01:00:00 13,1 11,7 9,9 20,8 18,6 6 4 9 5 W 1026,6 26 0 0,0
18.06.2018 00:00:00 14,3 12,3 10,8 20,8 18,6 5 3 9 5 W 1026,5 31 0 0,0
17.06.2018 23:00:00 14,8 12,3 12,3 20,9 18,6 8 5 13 7 W 1026,6 34 0 0,0
17.06.2018 22:00:00 16,1 12,5 13,9 20,9 18,6 10 5 22 12 W 1025,7 42 14 0,0
17.06.2018 21:00:00 19,3 13,0 18,4 20,9 18,6 13 7 25 14 WNW 1025,3 47 60 0,0
17.06.2018 20:00:00 20,8 12,7 21,2 20,8 18,6 19 10 32 17 WNW 1025,0 20 50 0,0
17.06.2018 19:00:00 21,2 12,3 21,9 20,7 18,6 22 12 33 18 WNW 1024,6 46 38 0,0
17.06.2018 18:00:00 21,8 12,9 21,8 20,5 18,6 17 9 29 16 WNW 1024,2 60 20 0,0
17.06.2018 17:00:00 21,8 13,9 23,1 20,4 18,6 16 8 30 16 WNW 1024,2 60 18 0,0
17.06.2018 16:00:00 23,0 14,3 23,6 20,2 18,6 19 10 33 18 W 1024,2 44 22 0,0
17.06.2018 15:00:00 21,6 13,5 21,6 20,0 18,6 13 7 21 11 WSW 1024,2 20 9 0,0
17.06.2018 14:00:00 20,7 13,4 23,1 19,9 18,5 10 5 18 10 W 1024,5 29 24 0,0
17.06.2018 13:00:00 20,1 15,1 22,1 19,8 18,6 9 5 17 9 WSW 1024,5 50 47 0,0
17.06.2018 12:00:00 18,1 15,0 15,7 19,8 18,6 6 3 14 8 SSW 1024,8 20 3 0,2
17.06.2018 11:00:00 15,6 14,5 15,4 19,8 18,5 13 7 18 10 W 1025,3 4,0 0 0,4
17.06.2018 10:00:00 16,3 14,0 18,0 19,9 18,6 7 4 13 7 SW 1025,1 12 0 0,0
17.06.2018 09:00:00 16,0 13,7 16,0 20,0 18,6 4 2 9 5 S 1024,7 19 0 0,0
17.06.2018 08:00:00 14,6 12,8 14,0 20,1 18,6 2 1 9 5 NW 1024,2 20 0 0,0
17.06.2018 07:00:00 14,5 12,4 13,4 20,2 18,5 4 2 8 4 WSW 1023,7 17 0 0,0
17.06.2018 06:00:00 13,7 12,1 12,5 20,4 18,5 0 0 4 2 N 1023,3 14 0 0,0
17.06.2018 05:00:00 12,4 11,6 8,6 20,5 18,5 2 1 3 2 SSW 1023,2 19 0 0,0
17.06.2018 04:00:00 11,9 10,6 8,7 20,7 18,5 0 0 2 1 N 1023,2 25 0 0,0
17.06.2018 03:00:00 12,2 10,9 8,7 20,8 18,5 0 0 3 1 N 1023,3 21 0 0,0
17.06.2018 02:00:00 13,5 11,5 9,9 21,0 18,5 3 2 8 4 SW 1023,1 29 0 0,0
17.06.2018 01:00:00 13,1 11,2 9,4 21,2 18,6 6 3 8 5 W 1023,4 37 0 0,0
17.06.2018 00:00:00 13,9 11,2 10,1 21,3 18,6 5 3 9 5 W 1023,2 42 0 0,0
16.06.2018 23:00:00 14,3 11,1 11,7 21,3 18,5 9 5 13 7 W 1023,1 45 0 0,0
16.06.2018 22:00:00 16,3 11,4 14,0 21,3 18,6 12 6 24 13 WNW 1022,0 53 17 0,0
16.06.2018 21:00:00 19,3 11,6 18,5 21,2 18,5 16 9 24 13 WNW 1021,5 41 60 0,0
16.06.2018 20:00:00 21,3 12,2 21,6 21,1 18,6 18 10 27 15 WNW 1020,8 58 45 0,0
16.06.2018 19:00:00 21,0 12,4 22,3 20,9 18,6 15 8 27 15 WNW 1020,0 58 33 0,0
16.06.2018 18:00:00 22,2 11,6 23,8 20,7 18,6 14 8 25 13 W 1019,9 59 36 0,0
16.06.2018 17:00:00 22,9 12,2 24,2 20,6 18,5 16 9 34 18 W 1020,0 52 36 0,0
16.06.2018 16:00:00 22,4 12,9 24,8 20,4 18,5 18 10 26 14 W 1020,1 58 36 0,0
16.06.2018 15:00:00 21,7 12,5 24,0 20,2 18,5 12 6 22 12 W 1020,2 20 16 0,0
16.06.2018 14:00:00 21,2 12,9 26,6 20,0 18,5 4 2 21 12 SW 1020,3 47 42 0,0
16.06.2018 13:00:00 20,0 12,5 25,7 19,9 18,5 8 5 18 10 WNW 1020,6 41 15 0,0
16.06.2018 12:00:00 18,8 12,5 21,7 19,9 18,6 8 4 15 8 NW 1020,7 41 2 0,0
16.06.2018 11:00:00 17,8 13,3 21,8 19,9 18,6 6 4 16 9 NW 1020,6 41 0 0,0
16.06.2018 10:00:00 17,5 13,4 19,3 19,9 18,5 5 3 11 6 NNW 1020,3 20 0 0,0
16.06.2018 09:00:00 16,9 13,2 16,6 20,0 18,6 3 2 6 3 ENE 1019,8 32 0 0,0
16.06.2018 08:00:00 15,8 13,8 15,4 20,0 18,5 2 1 5 3 SSW 1019,4 28 0 0,0
16.06.2018 07:00:00 15,1 14,1 14,7 20,1 18,6 2 1 5 3 NW 1019,4 19 0 0,0
16.06.2018 06:00:00 14,9 13,8 13,7 20,2 18,6 3 1 4 2 NE 1019,3 27 0 0,0
16.06.2018 05:00:00 15,4 14,1 15,2 20,2 18,6 0 0 6 4 N 1019,2 20 0 0,0
16.06.2018 04:00:00 15,8 14,8 15,3 20,3 18,6 4 2 8 5 N 1019,3 19 0 0,0
16.06.2018 03:00:00 16,1 15,6 15,4 20,4 18,6 7 4 11 6 WNW 1019,4 12 0 0,0
16.06.2018 02:00:00 16,5 15,9 15,9 20,4 18,6 4 2 7 4 W 1019,6 14 0 0,0
16.06.2018 01:00:00 16,6 15,8 16,1 20,5 18,6 3 2 10 6 W 1019,7 20 0 0,0
16.06.2018 00:00:00 16,8 16,3 16,5 20,5 18,5 6 3 15 8 W 1020,0 8 0 0,0
15.06.2018 23:00:00 17,3 16,7 17,1 20,5 18,6 6 3 14 7 W 1019,9 19 0 0,0
15.06.2018 22:00:00 17,4 16,8 17,1 20,5 18,6 9 5 18 10 W 1019,7 11 0 0,2
15.06.2018 21:00:00 18,4 16,9 17,6 20,4 18,6 15 8 22 12 W 1019,5 15 0 0,0
15.06.2018 20:00:00 19,6 16,1 19,7 20,4 18,5 9 5 18 10 WSW 1019,2 47 0 0,0
15.06.2018 19:00:00 20,3 15,9 20,6 20,3 18,6 11 6 17 9 WSW 1018,8 53 2 0,0
15.06.2018 18:00:00 20,6 15,8 21,0 20,2 18,5 13 7 20 11 W 1019,1 60 20 0,0
15.06.2018 17:00:00 19,5 15,6 20,3 20,1 18,6 16 9 24 13 W 1019,4 58 0 0,0
15.06.2018 16:00:00 19,9 15,1 21,4 20,1 18,6 10 5 19 11 WNW 1019,4 60 0 0,0
15.06.2018 15:00:00 19,7 14,9 21,7 20,0 18,6 11 6 16 9 W 1019,4 51 0 0,0
15.06.2018 14:00:00 18,7 14,2 18,9 20,0 18,6 5 3 19 10 SSW 1019,5 42 0 0,0
15.06.2018 13:00:00 18,7 14,8 18,5 19,9 18,6 9 5 17 9 NNW 1019,5 18 0 0,0
15.06.2018 12:00:00 18,9 13,7 22,3 19,9 18,5 10 6 20 11 W 1019,5 32 0 0,0
15.06.2018 11:00:00 18,3 14,2 20,3 19,9 18,6 10 6 17 9 W 1019,2 32 1 0,0
15.06.2018 10:00:00 16,9 14,5 17,4 20,0 18,5 8 4 11 6 W 1019,5 19 0 0,0
15.06.2018 09:00:00 15,5 13,9 15,4 20,1 18,5 7 4 9 5 WSW 1019,4 23 0 0,0
15.06.2018 08:00:00 14,2 13,6 13,5 20,2 18,5 4 2 8 5 W 1019,3 15 0 0,0
15.06.2018 07:00:00 13,1 12,6 11,5 20,3 18,5 3 2 5 3 WNW 1019,1 13 0 0,0
15.06.2018 06:00:00 12,8 12,2 11,0 20,5 18,5 4 2 5 3 W 1019,0 14 0 0,0
15.06.2018 05:00:00 13,0 12,1 10,0 20,6 18,5 3 1 6 3 WNW 1019,1 17 0 0,0
15.06.2018 04:00:00 13,0 12,1 10,2 20,7 18,5 4 2 7 4 WSW 1019,2 18 0 0,0
15.06.2018 03:00:00 13,3 12,4 10,1 20,9 18,5 0 0 4 2 N 1019,7 24 0 0,0
15.06.2018 02:00:00 14,2 12,8 11,0 21,0 18,5 0 0 5 3 N 1020,0 26 0 0,0
15.06.2018 01:00:00 15,0 12,9 13,5 21,1 18,5 4 2 8 5 W 1020,2 36 0 0,0

tt = Température de l'air
td = dewpoint
tt 5cm = Température de l'air 5cm
tt -20cm = Température de l'air -20cm
tt -100cm = Température de l'air -100cm
ff = Vitesse du vent
fx = gusts
dd = Direction du vent
ppp = reduced air pressure
vv = visibility
sd = Ensoleillement
rr = Quantités de précipitations

stations d'obs. à proximité